START_TIME,STEP,MOV.,H8,t_acc.,H43,t_acc.,M25,t_acc.,H9,t_acc.
1979-03-06 12:00:27.090 ,4,1,0.,12.0,0.,12.0,0.,12.0,0.,12.0
1979-03-06 12:00:39.090 ,4,1,11.,12.0,0.,12.0,0.,12.0,0.,12.0
1979-03-06 12:00:51.090 ,0,1,16.,12.0,0.,12.0,0.,12.0,0.,12.0
1979-03-06 12:01:03.090 ,0,1,12.,12.0,0.,12.0,0.,12.0,0.,12.0
1979-03-06 12:01:15.090 ,3,1,4.,12.0,0.,12.0,0.,12.0,0.,12.0
1979-03-06 12:01:27.090 ,3,1,9.,12.0,0.,12.0,0.,12.0,0.,12.0
1979-03-06 12:01:39.090 ,7,1,18.,12.0,0.,12.0,0.,12.0,0.,12.0
1979-03-06 12:01:51.090 ,7,1,7.,12.0,0.,12.0,0.,12.0,0.,12.0
1979-03-06 12:02:03.090 ,4,1,2.,12.0,0.,12.0,0.,12.0,0.,12.0
1979-03-06 12:02:15.090 ,4,1,20.,12.0,0.,12.0,0.,12.0,0.,12.0
1979-03-06 12:02:27.090 ,0,1,32.,12.0,0.,12.0,0.,12.0,0.,12.0
1979-03-06 12:02:39.090 ,0,1,4.,12.0,0.,12.0,0.,12.0,0.,12.0
1979-03-06 12:02:51.090 ,3,1,6.,12.0,0.,12.0,0.,12.0,0.,12.0
1979-03-06 12:03:03.090 ,3,1,21.,12.0,0.,12.0,0.,12.0,0.,12.0
1979-03-06 12:03:15.090 ,7,1,53.,12.0,0.,12.0,0.,12.0,0.,12.0
1979-03-06 12:03:27.090 ,7,1,8.,12.0,0.,12.0,0.,12.0,0.,12.0
1979-03-06 12:03:39.090 ,4,1,2.,12.0,0.,12.0,0.,12.0,0.,12.0
1979-03-06 12:03:51.090 ,4,1,30.,12.0,0.,12.0,0.,12.0,0.,12.0
1979-03-06 12:04:03.090 ,0,1,126.,12.0,0.,12.0,0.,12.0,0.,12.0
1979-03-06 12:04:15.090 ,0,1,11.,12.0,0.,12.0,0.,12.0,0.,12.0
1979-03-06 12:04:27.090 ,3,1,11.,12.0,0.,12.0,0.,12.0,0.,12.0
1979-03-06 12:04:39.090 ,3,1,28.,12.0,0.,12.0,0.,12.0,0.,12.0
1979-03-06 12:04:51.090 ,7,1,54.,12.0,0.,12.0,0.,12.0,0.,12.0
1979-03-06 12:05:03.090 ,7,1,5.,12.0,0.,12.0,0.,12.0,0.,12.0
1979-03-06 12:05:15.090 ,4,1,0.,12.0,0.,12.0,0.,12.0,0.,12.0
1979-03-06 12:05:27.090 ,4,1,45.,12.0,0.,12.0,0.,12.0,0.,12.0
1979-03-06 12:05:39.090 ,0,1,280.,12.0,0.,12.0,0.,12.0,0.,12.0
1979-03-06 12:05:51.090 ,0,1,112.,12.0,0.,12.0,0.,12.0,0.,12.0
1979-03-06 12:06:03.090 ,3,1,9.,12.0,0.,12.0,0.,12.0,0.,12.0
1979-03-06 12:06:15.090 ,3,1,36.,12.0,0.,12.0,0.,12.0,0.,12.0
1979-03-06 12:06:27.090 ,7,1,98.,12.0,0.,12.0,0.,12.0,0.,12.0
1979-03-06 12:06:39.090 ,7,1,7.,12.0,0.,12.0,0.,12.0,0.,12.0
1979-03-06 12:06:51.090 ,4,1,1.,12.0,0.,12.0,0.,12.0,0.,12.0
1979-03-06 12:07:03.090 ,4,1,22.,12.0,0.,12.0,0.,12.0,0.,12.0
1979-03-06 12:07:15.090 ,0,1,88.,12.0,0.,12.0,0.,12.0,0.,12.0
1979-03-06 12:07:27.090 ,0,1,12.,12.0,0.,12.0,0.,12.0,0.,12.0
1979-03-06 12:07:39.090 ,3,1,1.,12.0,0.,12.0,0.,12.0,0.,12.0
1979-03-06 12:07:51.090 ,3,1,24.,12.0,0.,12.0,0.,12.0,0.,12.0
1979-03-06 12:08:03.090 ,7,1,43.,12.0,0.,12.0,0.,12.0,0.,12.0
1979-03-06 12:08:15.090 ,7,1,8.,12.0,0.,12.0,0.,12.0,0.,12.0
1979-03-06 12:08:27.090 ,4,1,5.,12.0,0.,12.0,0.,12.0,0.,12.0
1979-03-06 12:08:39.090 ,4,1,43.,12.0,0.,12.0,0.,12.0,0.,12.0
1979-03-06 12:08:51.090 ,0,1,116.,12.0,0.,12.0,0.,12.0,0.,12.0
1979-03-06 12:09:03.090 ,0,1,9.,12.0,0.,12.0,0.,12.0,0.,12.0
1979-03-06 12:09:15.090 ,3,1,1.,12.0,0.,12.0,0.,12.0,0.,12.0
1979-03-06 12:09:27.090 ,3,1,15.,12.0,0.,12.0,0.,12.0,0.,12.0
1979-03-06 12:09:39.090 ,7,1,48.,12.0,0.,12.0,0.,12.0,0.,12.0
1979-03-06 12:09:51.090 ,7,1,14.,12.0,0.,12.0,0.,12.0,0.,12.0
1979-03-06 12:10:03.090 ,4,1,1.,12.0,0.,12.0,0.,12.0,0.,12.0
1979-03-06 12:10:15.090 ,4,1,23.,12.0,0.,12.0,0.,12.0,0.,12.0
1979-03-06 12:10:27.090 ,0,1,28.,12.0,0.,12.0,0.,12.0,0.,12.0
1979-03-06 12:10:39.090 ,0,1,5.,12.0,0.,12.0,0.,12.0,0.,12.0
1979-03-06 12:10:51.090 ,3,1,3.,12.0,0.,12.0,0.,12.0,0.,12.0
1979-03-06 12:11:03.090 ,3,1,14.,12.0,0.,12.0,0.,12.0,0.,12.0
1979-03-06 12:11:15.090 ,7,1,21.,12.0,0.,12.0,0.,12.0,0.,12.0
1979-03-06 12:11:27.090 ,7,1,13.,12.0,0.,12.0,0.,12.0,0.,12.0
1979-03-06 12:11:39.090 ,4,1,0.,12.0,0.,12.0,0.,12.0,0.,12.0
1979-03-06 12:11:51.090 ,4,1,9.,12.0,0.,12.0,0.,12.0,0.,12.0
1979-03-06 12:12:03.090 ,0,1,19.,12.0,0.,12.0,0.,12.0,0.,12.0
1979-03-06 12:12:15.090 ,0,1,7.,12.0,0.,12.0,0.,12.0,0.,12.0
1979-03-06 12:12:27.090 ,3,1,0.,12.0,0.,12.0,0.,12.0,0.,12.0
1979-03-06 12:12:39.090 ,3,1,6.,12.0,0.,12.0,0.,12.0,0.,12.0
1979-03-06 12:12:51.090 ,7,1,7.,12.0,0.,12.0,0.,12.0,0.,12.0
1979-03-06 12:13:03.090 ,7,1,6.,12.0,0.,12.0,0.,12.0,0.,12.0
1979-03-06 12:13:15.090 ,4,1,4.,12.0,0.,12.0,0.,12.0,0.,12.0
1979-03-06 12:13:27.090 ,4,1,17.,12.0,0.,12.0,0.,12.0,0.,12.0
1979-03-06 12:13:39.090 ,0,1,7.,12.0,0.,12.0,0.,12.0,0.,12.0
1979-03-06 12:13:51.090 ,0,1,4.,12.0,0.,12.0,0.,12.0,0.,12.0
1979-03-06 12:14:03.090 ,3,1,10.,12.0,0.,12.0,0.,12.0,0.,12.0
1979-03-06 12:14:15.090 ,3,1,6.,12.0,0.,12.0,0.,12.0,0.,12.0
1979-03-06 12:14:27.090 ,7,1,11.,12.0,0.,12.0,0.,12.0,0.,12.0
1979-03-06 12:14:39.090 ,7,1,5.,12.0,0.,12.0,0.,12.0,0.,12.0
1979-03-06 12:14:51.090 ,4,1,1.,12.0,0.,12.0,0.,12.0,0.,12.0
1979-03-06 12:15:03.090 ,4,1,4.,12.0,0.,12.0,0.,12.0,0.,12.0
1979-03-06 12:15:15.090 ,0,1,9.,12.0,0.,12.0,0.,12.0,0.,12.0
1979-03-06 12:15:27.090 ,0,1,6.,12.0,0.,12.0,0.,12.0,0.,12.0
1979-03-06 12:15:39.090 ,3,1,4.,12.0,0.,12.0,0.,12.0,0.,12.0
1979-03-06 12:15:51.090 ,3,1,4.,12.0,0.,12.0,0.,12.0,0.,12.0
1979-03-06 12:16:03.090 ,7,1,8.,12.0,0.,12.0,0.,12.0,0.,12.0
1979-03-06 12:16:15.090 ,7,1,6.,12.0,0.,12.0,0.,12.0,0.,12.0
1979-03-06 12:16:27.090 ,4,1,0.,12.0,0.,12.0,0.,12.0,0.,12.0
1979-03-06 12:16:39.090 ,4,1,11.,12.0,0.,12.0,0.,12.0,0.,12.0
1979-03-06 12:16:51.090 ,0,1,5.,12.0,0.,12.0,0.,12.0,0.,12.0
1979-03-06 12:17:03.090 ,0,1,6.,12.0,0.,12.0,0.,12.0,0.,12.0
1979-03-06 12:17:15.090 ,3,1,10.,12.0,0.,12.0,0.,12.0,0.,12.0
1979-03-06 12:17:27.090 ,3,1,6.,12.0,0.,12.0,0.,12.0,0.,12.0
1979-03-06 12:17:39.090 ,7,1,1.,12.0,0.,12.0,0.,12.0,0.,12.0
1979-03-06 12:17:51.090 ,7,1,3.,12.0,0.,12.0,0.,12.0,0.,12.0
1979-03-06 12:18:03.090 ,4,1,1.,12.0,0.,12.0,0.,12.0,0.,12.0
1979-03-06 12:18:15.090 ,4,1,5.,12.0,0.,12.0,0.,12.0,0.,12.0
1979-03-06 12:18:27.090 ,0,1,6.,12.0,0.,12.0,0.,12.0,0.,12.0
1979-03-06 12:18:39.090 ,0,1,5.,12.0,0.,12.0,0.,12.0,0.,12.0
1979-03-06 12:18:51.090 ,3,1,2.,12.0,0.,12.0,0.,12.0,0.,12.0
1979-03-06 12:19:03.090 ,3,1,9.,12.0,0.,12.0,0.,12.0,0.,12.0
1979-03-06 12:19:15.090 ,7,1,7.,12.0,0.,12.0,0.,12.0,0.,12.0
1979-03-06 12:19:27.090 ,7,1,1.,12.0,0.,12.0,0.,12.0,0.,12.0
1979-03-06 12:19:39.090 ,4,1,1.,12.0,0.,12.0,0.,12.0,0.,12.0
1979-03-06 12:19:51.090 ,4,1,4.,12.0,0.,12.0,0.,12.0,0.,12.0
1979-03-06 12:20:03.090 ,0,1,6.,12.0,0.,12.0,0.,12.0,0.,12.0
1979-03-06 12:20:15.090 ,0,1,7.,12.0,0.,12.0,0.,12.0,0.,12.0
1979-03-06 12:20:27.090 ,3,1,8.,12.0,0.,12.0,0.,12.0,0.,12.0
1979-03-06 12:20:39.090 ,3,1,5.,12.0,0.,12.0,0.,12.0,0.,12.0
1979-03-06 12:20:51.090 ,7,1,4.,12.0,0.,12.0,0.,12.0,0.,12.0
1979-03-06 12:21:03.090 ,7,1,0.,12.0,0.,12.0,0.,12.0,0.,12.0
1979-03-06 12:21:15.090 ,4,1,2.,12.0,0.,12.0,0.,12.0,0.,12.0
1979-03-06 12:21:27.090 ,4,1,3.,12.0,0.,12.0,0.,12.0,0.,12.0
1979-03-06 12:21:39.090 ,0,1,5.,12.0,0.,12.0,0.,12.0,0.,12.0
1979-03-06 12:21:51.090 ,0,1,4.,12.0,0.,12.0,0.,12.0,0.,12.0
1979-03-06 12:22:03.090 ,3,1,2.,12.0,0.,12.0,0.,12.0,0.,12.0
1979-03-06 12:22:15.090 ,3,1,6.,12.0,0.,12.0,0.,12.0,0.,12.0
1979-03-06 12:22:27.090 ,7,1,5.,12.0,0.,12.0,0.,12.0,1.,12.0
1979-03-06 12:22:39.090 ,7,1,5.,12.0,0.,12.0,0.,12.0,0.,12.0
1979-03-06 12:22:51.090 ,4,1,1.,12.0,0.,12.0,0.,12.0,0.,12.0
1979-03-06 12:23:03.090 ,4,1,6.,12.0,1.,12.0,0.,12.0,0.,12.0
1979-03-06 12:23:15.090 ,0,1,6.,12.0,0.,12.0,0.,12.0,0.,12.0
1979-03-06 12:23:27.090 ,0,1,33.,12.0,0.,12.0,0.,12.0,0.,12.0
1979-03-06 12:23:39.090 ,3,1,37.,12.0,0.,12.0,0.,12.0,0.,12.0
1979-03-06 12:23:51.090 ,3,1,22.,12.0,0.,12.0,0.,12.0,0.,12.0
1979-03-06 12:24:03.090 ,7,1,7.,12.0,0.,12.0,0.,12.0,0.,12.0
1979-03-06 12:24:15.090 ,7,1,4.,12.0,0.,12.0,0.,12.0,0.,12.0
1979-03-06 12:24:27.090 ,4,1,3.,12.0,0.,12.0,0.,12.0,0.,12.0
1979-03-06 12:24:39.090 ,4,1,12.,12.0,0.,12.0,0.,12.0,0.,12.0
1979-03-06 12:24:51.090 ,0,1,8.,12.0,0.,12.0,0.,12.0,0.,12.0
1979-03-06 12:25:03.090 ,0,1,15.,12.0,0.,12.0,0.,12.0,0.,12.0
1979-03-06 12:25:15.090 ,3,1,19.,12.0,0.,12.0,0.,12.0,0.,12.0
1979-03-06 12:25:27.090 ,3,1,14.,12.0,0.,12.0,0.,12.0,0.,12.0
1979-03-06 12:25:39.090 ,7,1,5.,12.0,0.,12.0,0.,12.0,0.,12.0
1979-03-06 12:25:51.090 ,7,1,6.,12.0,0.,12.0,0.,12.0,0.,12.0
1979-03-06 12:26:03.090 ,4,1,0.,12.0,0.,12.0,0.,12.0,0.,12.0
1979-03-06 12:26:15.090 ,4,1,6.,12.0,0.,12.0,0.,12.0,0.,12.0
1979-03-06 12:26:27.090 ,0,1,11.,12.0,0.,12.0,0.,12.0,0.,12.0
1979-03-06 12:26:39.090 ,0,1,12.,12.0,0.,12.0,0.,12.0,0.,12.0
1979-03-06 12:26:51.090 ,3,1,13.,12.0,0.,12.0,0.,12.0,0.,12.0
1979-03-06 12:27:03.090 ,3,1,5.,12.0,0.,12.0,0.,12.0,0.,12.0
1979-03-06 12:27:15.090 ,7,1,8.,12.0,0.,12.0,0.,12.0,0.,12.0
1979-03-06 12:27:27.090 ,7,1,5.,12.0,0.,12.0,0.,12.0,0.,12.0
1979-03-06 12:27:39.090 ,4,1,1.,12.0,0.,12.0,0.,12.0,0.,12.0
1979-03-06 12:27:51.090 ,4,1,9.,12.0,0.,12.0,0.,12.0,0.,12.0
1979-03-06 12:28:03.090 ,0,1,9.,12.0,0.,12.0,0.,12.0,0.,12.0
1979-03-06 12:28:15.090 ,0,1,7.,12.0,0.,12.0,0.,12.0,0.,12.0
1979-03-06 12:28:27.090 ,3,1,10.,12.0,0.,12.0,0.,12.0,0.,12.0
1979-03-06 12:28:39.090 ,3,1,4.,12.0,0.,12.0,0.,12.0,0.,12.0
1979-03-06 12:28:51.090 ,7,1,1.,12.0,0.,12.0,0.,12.0,0.,12.0
1979-03-06 12:29:03.090 ,7,1,6.,12.0,0.,12.0,0.,12.0,0.,12.0
1979-03-06 12:29:15.090 ,4,1,3.,12.0,0.,12.0,0.,12.0,0.,12.0
1979-03-06 12:29:27.090 ,4,1,9.,12.0,0.,12.0,0.,12.0,0.,12.0
1979-03-06 12:29:39.090 ,0,1,3.,12.0,0.,12.0,0.,12.0,0.,12.0
1979-03-06 12:29:51.090 ,0,1,7.,12.0,0.,12.0,0.,12.0,0.,12.0
1979-03-06 12:30:03.090 ,3,1,6.,12.0,0.,12.0,0.,12.0,0.,12.0
1979-03-06 12:30:15.090 ,3,1,9.,12.0,0.,12.0,0.,12.0,0.,12.0
1979-03-06 12:30:27.090 ,7,1,7.,12.0,0.,12.0,0.,12.0,0.,12.0
1979-03-06 12:30:39.090 ,7,1,2.,12.0,0.,12.0,0.,12.0,0.,12.0
1979-03-06 12:30:51.090 ,4,1,2.,12.0,0.,12.0,0.,12.0,0.,12.0
1979-03-06 12:31:03.090 ,4,1,8.,12.0,0.,12.0,0.,12.0,0.,12.0
1979-03-06 12:31:15.090 ,0,1,6.,12.0,0.,12.0,0.,12.0,0.,12.0
1979-03-06 12:31:27.090 ,0,1,1.,12.0,0.,12.0,0.,12.0,0.,12.0
1979-03-06 12:31:39.090 ,3,1,5.,12.0,0.,12.0,0.,12.0,0.,12.0
1979-03-06 12:31:51.090 ,3,1,3.,12.0,0.,12.0,0.,12.0,0.,12.0
1979-03-06 12:32:03.090 ,7,1,4.,12.0,0.,12.0,0.,12.0,0.,12.0
1979-03-06 12:32:15.090 ,7,1,2.,12.0,0.,12.0,0.,12.0,0.,12.0
1979-03-06 12:32:27.090 ,4,1,5.,12.0,0.,12.0,0.,12.0,0.,12.0
1979-03-06 12:32:39.090 ,4,1,3.,12.0,0.,12.0,0.,12.0,0.,12.0
1979-03-06 12:32:51.090 ,0,1,5.,12.0,0.,12.0,0.,12.0,0.,12.0
1979-03-06 12:33:03.090 ,0,1,1.,12.0,0.,12.0,0.,12.0,0.,12.0
1979-03-06 12:33:15.090 ,3,1,1.,12.0,0.,12.0,0.,12.0,0.,12.0
1979-03-06 12:33:27.090 ,3,1,7.,12.0,0.,12.0,0.,12.0,0.,12.0
1979-03-06 12:33:39.090 ,7,1,7.,12.0,0.,12.0,0.,12.0,0.,12.0
1979-03-06 12:33:51.090 ,7,1,5.,12.0,0.,12.0,0.,12.0,0.,12.0
1979-03-06 12:34:03.090 ,4,1,3.,12.0,0.,12.0,0.,12.0,0.,12.0
1979-03-06 12:34:15.090 ,4,1,4.,12.0,0.,12.0,0.,12.0,0.,12.0
1979-03-06 12:34:27.090 ,0,1,3.,12.0,0.,12.0,0.,12.0,0.,12.0
1979-03-06 12:34:39.090 ,0,1,1.,12.0,0.,12.0,0.,12.0,0.,12.0
1979-03-06 12:34:51.090 ,3,1,7.,12.0,0.,12.0,0.,12.0,0.,12.0
1979-03-06 12:35:03.090 ,3,1,8.,12.0,0.,12.0,0.,12.0,0.,12.0
1979-03-06 12:35:15.090 ,7,1,7.,12.0,0.,12.0,0.,12.0,0.,12.0
1979-03-06 12:35:27.090 ,7,1,4.,12.0,0.,12.0,0.,12.0,0.,12.0
1979-03-06 12:35:39.090 ,4,1,3.,12.0,0.,12.0,0.,12.0,0.,12.0
1979-03-06 12:35:51.090 ,4,1,3.,12.0,0.,12.0,0.,12.0,0.,12.0
1979-03-06 12:36:03.090 ,0,1,2.,12.0,0.,12.0,0.,12.0,0.,12.0
1979-03-06 12:36:15.090 ,0,1,1.,12.0,0.,12.0,0.,12.0,0.,12.0
1979-03-06 12:36:27.090 ,3,1,6.,12.0,0.,12.0,0.,12.0,0.,12.0
1979-03-06 12:36:39.090 ,3,1,1.,12.0,0.,12.0,0.,12.0,0.,12.0
1979-03-06 12:36:51.090 ,7,1,1.,12.0,0.,12.0,0.,12.0,0.,12.0
1979-03-06 12:37:03.090 ,7,1,5.,12.0,0.,12.0,0.,12.0,0.,12.0
1979-03-06 12:37:15.090 ,4,1,3.,12.0,0.,12.0,0.,12.0,0.,12.0
1979-03-06 12:37:27.090 ,4,1,1.,12.0,0.,12.0,0.,12.0,0.,12.0
1979-03-06 12:37:39.090 ,0,1,3.,12.0,0.,12.0,0.,12.0,0.,12.0
1979-03-06 12:37:51.090 ,0,1,6.,12.0,0.,12.0,0.,12.0,0.,12.0
1979-03-06 12:38:03.090 ,3,1,3.,12.0,0.,12.0,0.,12.0,0.,12.0
1979-03-06 12:38:15.090 ,3,1,9.,12.0,0.,12.0,0.,12.0,0.,12.0
1979-03-06 12:38:27.090 ,0,0,7.,12.0,0.,12.0,0.,12.0,0.,12.0
1979-03-06 12:38:39.090 ,0,0,6.,12.0,1.,12.0,0.,12.0,0.,12.0
1979-03-06 12:38:51.090 ,6,0,4.,12.0,0.,12.0,0.,12.0,0.,12.0
1979-03-06 12:39:03.090 ,6,0,5.,12.0,0.,12.0,0.,12.0,0.,12.0
1979-03-06 12:39:15.090 ,7,0,5.,12.0,0.,12.0,0.,12.0,0.,12.0
1979-03-06 12:39:27.090 ,7,0,0.,12.0,0.,12.0,0.,12.0,0.,12.0
1979-03-06 12:39:39.090 ,7,0,0.,12.0,0.,12.0,0.,12.0,0.,12.0
1979-03-06 12:39:51.090 ,7,0,0.,12.0,0.,12.0,0.,12.0,0.,12.0
1979-03-06 12:40:03.090 ,6,0,0.,12.0,0.,12.0,0.,12.0,0.,12.0
1979-03-06 12:40:15.090 ,6,0,3.,12.0,0.,12.0,0.,12.0,0.,12.0
1979-03-06 12:40:27.090 ,5,0,3.,12.0,0.,12.0,0.,12.0,0.,12.0
1979-03-06 12:40:39.090 ,5,0,13.,12.0,0.,12.0,0.,12.0,0.,12.0
1979-03-06 12:40:51.090 ,4,0,4.,12.0,0.,12.0,0.,12.0,0.,12.0
1979-03-06 12:41:03.090 ,4,0,10.,12.0,0.,12.0,0.,12.0,0.,12.0
1979-03-06 12:41:15.090 ,3,0,12.,12.0,0.,12.0,0.,12.0,0.,12.0
1979-03-06 12:41:27.090 ,3,0,11.,12.0,0.,12.0,0.,12.0,0.,12.0
1979-03-06 12:41:39.090 ,2,0,5.,12.0,0.,12.0,0.,12.0,0.,12.0
1979-03-06 12:41:51.090 ,2,0,4.,12.0,0.,12.0,0.,12.0,0.,12.0
1979-03-06 12:42:03.090 ,1,0,3.,12.0,0.,12.0,0.,12.0,0.,12.0
1979-03-06 12:42:15.090 ,1,0,4.,12.0,0.,12.0,0.,12.0,0.,12.0
1979-03-06 12:42:27.090 ,0,0,3.,12.0,0.,12.0,0.,12.0,0.,12.0
1979-03-06 12:42:39.090 ,0,0,10.,12.0,0.,12.0,0.,12.0,0.,12.0
1979-03-06 12:42:51.090 ,0,0,7.,12.0,0.,12.0,0.,12.0,0.,12.0
1979-03-06 12:43:03.090 ,0,0,10.,12.0,0.,12.0,0.,12.0,0.,12.0
1979-03-06 12:43:15.090 ,1,0,11.,12.0,0.,12.0,0.,12.0,0.,12.0
1979-03-06 12:43:27.090 ,1,0,25.,12.0,0.,12.0,0.,12.0,0.,12.0
1979-03-06 12:43:39.090 ,2,0,20.,12.0,0.,12.0,0.,12.0,0.,12.0
1979-03-06 12:43:51.090 ,2,0,7.,12.0,0.,12.0,0.,12.0,0.,12.0
1979-03-06 12:44:03.090 ,3,0,17.,12.0,0.,12.0,0.,12.0,0.,12.0
1979-03-06 12:44:15.090 ,3,0,16.,12.0,0.,12.0,0.,12.0,0.,12.0
1979-03-06 12:44:27.090 ,4,0,13.,12.0,0.,12.0,0.,12.0,0.,12.0
1979-03-06 12:44:39.090 ,4,0,13.,12.0,0.,12.0,0.,12.0,0.,12.0
1979-03-06 12:44:51.090 ,5,0,17.,12.0,0.,12.0,0.,12.0,0.,12.0
1979-03-06 12:45:03.090 ,5,0,18.,12.0,0.,12.0,0.,12.0,0.,12.0
1979-03-06 12:45:15.090 ,6,0,22.,12.0,0.,12.0,0.,12.0,0.,12.0
1979-03-06 12:45:27.090 ,6,0,14.,12.0,0.,12.0,0.,12.0,0.,12.0
1979-03-06 12:45:39.090 ,7,0,26.,12.0,0.,12.0,0.,12.0,0.,12.0
1979-03-06 12:45:51.090 ,7,0,0.,12.0,0.,12.0,0.,12.0,0.,12.0
1979-03-06 12:46:03.090 ,7,0,0.,12.0,0.,12.0,0.,12.0,0.,12.0
1979-03-06 12:46:15.090 ,7,0,0.,12.0,0.,12.0,0.,12.0,0.,12.0
1979-03-06 12:46:27.090 ,6,0,8.,12.0,0.,12.0,0.,12.0,0.,12.0
1979-03-06 12:46:39.090 ,6,0,54.,12.0,0.,12.0,0.,12.0,0.,12.0
1979-03-06 12:46:51.090 ,5,0,50.,12.0,0.,12.0,0.,12.0,0.,12.0
1979-03-06 12:47:03.090 ,5,0,88.,12.0,0.,12.0,0.,12.0,0.,12.0
1979-03-06 12:47:15.090 ,4,0,98.,12.0,0.,12.0,0.,12.0,0.,12.0
1979-03-06 12:47:27.090 ,4,0,204.,12.0,0.,12.0,0.,12.0,1.,12.0
1979-03-06 12:47:39.090 ,3,0,208.,12.0,0.,12.0,0.,12.0,0.,12.0
1979-03-06 12:47:51.090 ,3,0,172.,12.0,0.,12.0,0.,12.0,0.,12.0
1979-03-06 12:48:03.090 ,2,0,176.,12.0,0.,12.0,0.,12.0,0.,12.0
1979-03-06 12:48:15.090 ,2,0,128.,12.0,0.,12.0,0.,12.0,0.,12.0
1979-03-06 12:48:27.090 ,1,0,120.,12.0,0.,12.0,0.,12.0,0.,12.0
1979-03-06 12:48:39.090 ,1,0,136.,12.0,0.,12.0,0.,12.0,0.,12.0
1979-03-06 12:48:51.090 ,0,0,102.,12.0,0.,12.0,0.,12.0,0.,12.0
1979-03-06 12:49:03.090 ,0,0,54.,12.0,0.,12.0,0.,12.0,0.,12.0
1979-03-06 12:49:15.090 ,0,0,36.,12.0,0.,12.0,0.,12.0,1.,12.0
1979-03-06 12:49:27.090 ,0,0,34.,12.0,0.,12.0,0.,12.0,0.,12.0
1979-03-06 12:49:39.090 ,1,0,15.,12.0,0.,12.0,0.,12.0,0.,12.0
1979-03-06 12:49:51.090 ,1,0,18.,12.0,0.,12.0,0.,12.0,0.,12.0
1979-03-06 12:50:03.090 ,2,0,26.,12.0,0.,12.0,0.,12.0,1.,12.0
1979-03-06 12:50:15.090 ,2,0,66.,12.0,0.,12.0,0.,12.0,0.,12.0
1979-03-06 12:50:27.090 ,3,0,54.,12.0,0.,12.0,0.,12.0,0.,12.0
1979-03-06 12:50:39.090 ,3,0,98.,12.0,0.,12.0,0.,12.0,0.,12.0
1979-03-06 12:50:51.090 ,4,0,110.,12.0,0.,12.0,0.,12.0,0.,12.0
1979-03-06 12:51:03.090 ,4,0,184.,12.0,0.,12.0,0.,12.0,0.,12.0
1979-03-06 12:51:15.090 ,5,0,168.,12.0,0.,12.0,0.,12.0,0.,12.0
1979-03-06 12:51:27.090 ,5,0,46.,12.0,0.,12.0,0.,12.0,0.,12.0
1979-03-06 12:51:39.090 ,6,0,45.,12.0,0.,12.0,0.,12.0,0.,12.0
1979-03-06 12:51:51.090 ,6,0,18.,12.0,0.,12.0,0.,12.0,0.,12.0
1979-03-06 12:52:03.090 ,7,0,31.,12.0,0.,12.0,0.,12.0,0.,12.0
1979-03-06 12:52:15.090 ,7,0,0.,12.0,0.,12.0,0.,12.0,0.,12.0
1979-03-06 12:52:27.090 ,7,0,0.,12.0,0.,12.0,0.,12.0,0.,12.0
1979-03-06 12:52:39.090 ,7,0,0.,12.0,0.,12.0,0.,12.0,0.,12.0
1979-03-06 12:52:51.090 ,6,0,0.,12.0,0.,12.0,0.,12.0,0.,12.0
1979-03-06 12:53:03.090 ,6,0,31.,12.0,0.,12.0,0.,12.0,0.,12.0
1979-03-06 12:53:15.090 ,5,0,38.,12.0,0.,12.0,0.,12.0,0.,12.0
1979-03-06 12:53:27.090 ,5,0,33.,12.0,0.,12.0,0.,12.0,0.,12.0
1979-03-06 12:53:39.090 ,4,0,47.,12.0,0.,12.0,0.,12.0,0.,12.0
1979-03-06 12:53:51.090 ,4,0,53.,12.0,0.,12.0,0.,12.0,0.,12.0
1979-03-06 12:54:03.090 ,3,0,47.,12.0,0.,12.0,0.,12.0,0.,12.0
1979-03-06 12:54:15.090 ,3,0,57.,12.0,0.,12.0,0.,12.0,0.,12.0
1979-03-06 12:54:27.090 ,2,0,64.,12.0,0.,12.0,0.,12.0,0.,12.0
1979-03-06 12:54:39.090 ,2,0,38.,12.0,0.,12.0,0.,12.0,0.,12.0
1979-03-06 12:54:51.090 ,1,0,41.,12.0,0.,12.0,0.,12.0,0.,12.0
1979-03-06 12:55:03.090 ,1,0,21.,12.0,0.,12.0,0.,12.0,0.,12.0
1979-03-06 12:55:15.090 ,0,0,15.,12.0,0.,12.0,0.,12.0,0.,12.0
1979-03-06 12:55:27.090 ,0,0,74.,12.0,0.,12.0,0.,12.0,0.,12.0
1979-03-06 12:55:39.090 ,0,0,57.,12.0,0.,12.0,0.,12.0,0.,12.0
1979-03-06 12:55:51.090 ,0,0,53.,12.0,0.,12.0,0.,12.0,0.,12.0
1979-03-06 12:56:03.090 ,1,0,44.,12.0,0.,12.0,0.,12.0,0.,12.0
1979-03-06 12:56:15.090 ,1,0,144.,12.0,0.,12.0,0.,12.0,0.,12.0
1979-03-06 12:56:27.090 ,2,0,188.,12.0,0.,12.0,0.,12.0,0.,12.0
1979-03-06 12:56:39.090 ,2,0,39.,12.0,0.,12.0,0.,12.0,0.,12.0
1979-03-06 12:56:51.090 ,3,0,59.,12.0,0.,12.0,0.,12.0,0.,12.0
1979-03-06 12:57:03.090 ,3,0,40.,12.0,0.,12.0,0.,12.0,0.,12.0
1979-03-06 12:57:15.090 ,4,0,42.,12.0,0.,12.0,0.,12.0,1.,12.0
1979-03-06 12:57:27.090 ,4,0,40.,12.0,0.,12.0,0.,12.0,0.,12.0
1979-03-06 12:57:39.090 ,5,0,34.,12.0,0.,12.0,0.,12.0,0.,12.0
1979-03-06 12:57:51.090 ,5,0,14.,12.0,0.,12.0,0.,12.0,0.,12.0
1979-03-06 12:58:03.090 ,6,0,29.,12.0,0.,12.0,0.,12.0,0.,12.0
1979-03-06 12:58:15.090 ,6,0,11.,12.0,0.,12.0,0.,12.0,0.,12.0
1979-03-06 12:58:27.090 ,7,0,8.,12.0,0.,12.0,0.,12.0,0.,12.0
1979-03-06 12:58:39.090 ,7,0,0.,12.0,0.,12.0,0.,12.0,0.,12.0
1979-03-06 12:58:51.090 ,0,0,0.,12.0,0.,12.0,0.,12.0,0.,12.0
1979-03-06 12:59:03.090 ,0,0,0.,12.0,0.,12.0,0.,12.0,0.,12.0
1979-03-06 13:08:49.290 ,0,0,,0,,0,,0,,0
1979-03-06 13:09:01.290 ,0,0,,0,,0,,0,,0
1979-03-06 13:08:51.090 ,0,0,1.,12.0,0.,12.0,0.,12.0,0.,12.0
1979-03-06 13:09:03.090 ,0,0,1.,12.0,0.,12.0,0.,12.0,0.,12.0
1979-03-06 13:09:15.090 ,2,0,2.,12.0,0.,12.0,0.,12.0,0.,12.0
1979-03-06 13:09:27.090 ,2,0,0.,12.0,0.,12.0,0.,12.0,0.,12.0
1979-03-06 13:09:39.090 ,3,0,1.,12.0,0.,12.0,0.,12.0,0.,12.0
1979-03-06 13:09:51.090 ,3,0,3.,12.0,0.,12.0,0.,12.0,0.,12.0
1979-03-06 13:10:03.090 ,0,0,5.,12.0,0.,12.0,0.,12.0,0.,12.0
1979-03-06 13:10:15.090 ,0,0,6.,12.0,0.,12.0,0.,12.0,0.,12.0
1979-03-06 13:10:27.090 ,5,0,7.,12.0,0.,12.0,0.,12.0,0.,12.0
1979-03-06 13:10:39.090 ,5,0,8.,12.0,0.,12.0,0.,12.0,0.,12.0
1979-03-06 13:10:51.090 ,6,0,4.,12.0,0.,12.0,0.,12.0,0.,12.0
1979-03-06 13:11:03.090 ,6,0,1.,12.0,0.,12.0,0.,12.0,0.,12.0
1979-03-06 13:11:15.090 ,7,0,1.,12.0,0.,12.0,0.,12.0,0.,12.0
1979-03-06 13:11:27.090 ,7,0,0.,12.0,0.,12.0,0.,12.0,0.,12.0
1979-03-06 13:11:39.090 ,7,0,0.,12.0,0.,12.0,0.,12.0,0.,12.0
1979-03-06 13:11:51.090 ,7,0,0.,12.0,0.,12.0,0.,12.0,0.,12.0
1979-03-06 13:12:03.090 ,6,0,0.,12.0,0.,12.0,0.,12.0,0.,12.0
1979-03-06 13:12:15.090 ,6,0,2.,12.0,0.,12.0,0.,12.0,0.,12.0
1979-03-06 13:12:27.090 ,5,0,1.,12.0,0.,12.0,0.,12.0,0.,12.0
1979-03-06 13:12:39.090 ,5,0,8.,12.0,0.,12.0,0.,12.0,0.,12.0
1979-03-06 13:12:51.090 ,4,0,1.,12.0,0.,12.0,0.,12.0,0.,12.0
1979-03-06 13:13:03.090 ,4,0,2.,12.0,0.,12.0,0.,12.0,0.,12.0
1979-03-06 13:13:15.090 ,3,0,5.,12.0,0.,12.0,0.,12.0,0.,12.0
1979-03-06 13:13:27.090 ,3,0,4.,12.0,0.,12.0,0.,12.0,0.,12.0
1979-03-06 13:13:39.090 ,2,0,2.,12.0,0.,12.0,0.,12.0,0.,12.0
1979-03-06 13:13:51.090 ,2,0,4.,12.0,0.,12.0,0.,12.0,0.,12.0
1979-03-06 13:14:03.090 ,1,0,4.,12.0,0.,12.0,0.,12.0,0.,12.0
1979-03-06 13:14:15.090 ,1,0,1.,12.0,0.,12.0,0.,12.0,0.,12.0
1979-03-06 13:14:27.090 ,0,0,1.,12.0,0.,12.0,0.,12.0,0.,12.0
1979-03-06 13:14:39.090 ,0,0,1.,12.0,0.,12.0,0.,12.0,0.,12.0
1979-03-06 13:14:51.090 ,0,0,0.,12.0,0.,12.0,0.,12.0,0.,12.0
1979-03-06 13:15:03.090 ,0,0,2.,12.0,0.,12.0,0.,12.0,0.,12.0
1979-03-06 13:15:15.090 ,1,0,5.,12.0,0.,12.0,0.,12.0,0.,12.0
1979-03-06 13:15:27.090 ,1,0,3.,12.0,0.,12.0,0.,12.0,0.,12.0
1979-03-06 13:15:39.090 ,2,0,2.,12.0,0.,12.0,0.,12.0,0.,12.0
1979-03-06 13:15:51.090 ,2,0,2.,12.0,0.,12.0,0.,12.0,0.,12.0
1979-03-06 13:16:03.090 ,3,0,2.,12.0,0.,12.0,0.,12.0,0.,12.0
1979-03-06 13:16:15.090 ,3,0,3.,12.0,0.,12.0,0.,12.0,0.,12.0
1979-03-06 13:16:27.090 ,4,0,4.,12.0,0.,12.0,0.,12.0,0.,12.0
1979-03-06 13:16:39.090 ,4,0,11.,12.0,0.,12.0,0.,12.0,0.,12.0
1979-03-06 13:16:51.090 ,5,0,7.,12.0,0.,12.0,0.,12.0,0.,12.0
1979-03-06 13:17:03.090 ,5,0,5.,12.0,0.,12.0,0.,12.0,0.,12.0
1979-03-06 13:17:15.090 ,6,0,3.,12.0,0.,12.0,0.,12.0,0.,12.0
1979-03-06 13:17:27.090 ,6,0,5.,12.0,0.,12.0,0.,12.0,0.,12.0
1979-03-06 13:17:39.090 ,7,0,1.,12.0,0.,12.0,0.,12.0,0.,12.0
1979-03-06 13:17:51.090 ,7,0,0.,12.0,0.,12.0,0.,12.0,0.,12.0
1979-03-06 13:18:03.090 ,7,0,0.,12.0,0.,12.0,0.,12.0,0.,12.0
1979-03-06 13:18:15.090 ,7,0,0.,12.0,0.,12.0,0.,12.0,0.,12.0
1979-03-06 13:18:27.090 ,6,0,0.,12.0,0.,12.0,0.,12.0,0.,12.0
1979-03-06 13:18:39.090 ,6,0,1.,12.0,0.,12.0,0.,12.0,0.,12.0
1979-03-06 13:18:51.090 ,5,0,2.,12.0,0.,12.0,0.,12.0,0.,12.0
1979-03-06 13:19:03.090 ,5,0,6.,12.0,0.,12.0,0.,12.0,0.,12.0
1979-03-06 13:19:15.090 ,4,0,5.,12.0,0.,12.0,0.,12.0,0.,12.0
1979-03-06 13:19:27.090 ,4,0,4.,12.0,0.,12.0,0.,12.0,0.,12.0
1979-03-06 13:19:39.090 ,3,0,3.,12.0,0.,12.0,0.,12.0,0.,12.0
1979-03-06 13:19:51.090 ,3,0,4.,12.0,0.,12.0,0.,12.0,0.,12.0
1979-03-06 13:20:03.090 ,2,0,3.,12.0,0.,12.0,0.,12.0,0.,12.0
1979-03-06 13:20:15.090 ,2,0,0.,12.0,0.,12.0,0.,12.0,0.,12.0
1979-03-06 13:20:27.090 ,1,0,1.,12.0,0.,12.0,0.,12.0,0.,12.0
1979-03-06 13:20:39.090 ,1,0,1.,12.0,0.,12.0,0.,12.0,0.,12.0
1979-03-06 13:20:51.090 ,0,0,1.,12.0,0.,12.0,0.,12.0,0.,12.0
1979-03-06 13:21:03.090 ,0,0,0.,12.0,0.,12.0,0.,12.0,0.,12.0
1979-03-06 13:21:15.090 ,0,0,0.,12.0,0.,12.0,0.,12.0,0.,12.0
1979-03-06 13:21:27.090 ,0,0,1.,12.0,0.,12.0,0.,12.0,0.,12.0
1979-03-06 13:21:39.090 ,1,0,0.,12.0,0.,12.0,0.,12.0,0.,12.0
1979-03-06 13:21:51.090 ,1,0,2.,12.0,0.,12.0,0.,12.0,0.,12.0
1979-03-06 13:22:03.090 ,2,0,3.,12.0,0.,12.0,0.,12.0,0.,12.0
1979-03-06 13:22:15.090 ,2,0,1.,12.0,0.,12.0,0.,12.0,0.,12.0
1979-03-06 13:22:27.090 ,3,0,1.,12.0,0.,12.0,0.,12.0,0.,12.0
1979-03-06 13:22:39.090 ,3,0,5.,12.0,0.,12.0,0.,12.0,0.,12.0
1979-03-06 13:22:51.090 ,4,0,3.,12.0,0.,12.0,0.,12.0,0.,12.0
1979-03-06 13:23:03.090 ,4,0,1.,12.0,0.,12.0,0.,12.0,0.,12.0
1979-03-06 13:23:15.090 ,5,0,3.,12.0,0.,12.0,0.,12.0,0.,12.0
1979-03-06 13:23:27.090 ,5,0,2.,12.0,0.,12.0,0.,12.0,0.,12.0
1979-03-06 13:23:39.090 ,6,0,2.,12.0,0.,12.0,0.,12.0,0.,12.0
1979-03-06 13:23:51.090 ,6,0,0.,12.0,0.,12.0,0.,12.0,0.,12.0
1979-03-06 13:24:03.100 ,7,0,0.,12.0,0.,12.0,0.,12.0,0.,12.0
1979-03-06 13:24:15.100 ,7,0,0.,12.0,0.,12.0,0.,12.0,0.,12.0
1979-03-06 13:24:27.100 ,7,0,0.,12.0,0.,12.0,0.,12.0,0.,12.0
1979-03-06 13:24:39.100 ,7,0,0.,12.0,0.,12.0,0.,12.0,0.,12.0
1979-03-06 13:24:51.100 ,0,0,0.,12.0,0.,12.0,0.,12.0,0.,12.0
1979-03-06 13:25:03.100 ,0,0,2.,12.0,0.,12.0,0.,12.0,0.,12.0
1979-03-06 13:25:15.100 ,0,0,2.,12.0,0.,12.0,0.,12.0,0.,12.0
1979-03-06 13:25:27.100 ,0,0,,0,,0,,0,,0
1979-03-06 13:25:43.900 ,0,0,6.,12.0,0.,12.0,0.,12.0,0.,12.0
1979-03-06 13:25:55.900 ,0,0,,0,,0,,0,,0
1979-03-06 13:26:03.100 ,0,0,,0,,0,,0,,0
1979-03-06 13:26:15.100 ,0,0,,0,,0,,0,,0
1979-03-06 13:26:37.300 ,0,0,,0,,0,,0,,0
1979-03-06 13:26:49.300 ,0,0,2.,12.0,0.,12.0,0.,12.0,0.,12.0